Location: Ammerl�gen
(47.2167°N, 9.6000°E)
Time: 15:17:22
(UTC+00:00)

BREEZE-M DEB (TANK) - Pass Details

Date: 21 April 2021
Orbit: 413 x 18316 km, 53.0° (Epoch: 05 May)

Event Time Altitude Azimuth Distance (km) Brightness Sun altitude
Rises 18:47:14 0° 242° (WSW) 2,607 6.4 -5.3°
Reaches altitude 10° 18:48:38 10° 242° (WSW) 1,949 5.7 -5.5°
Maximum altitude 18:52:25 88° 330° (NNW) 1,015 3.7 -6.1°
Drops below altitude 10° 19:05:47 10° 64° (ENE) 6,419 7.4 -8.1°
Sets 19:15:27 0° 66° (ENE) 9,943 8.3 -9.5°
